[[{"header":{"parameterUnit":"m.s-1","parameterCategory":1,"la1":30.2991,"la2":30.254,"lo1":-89.0895,"lo2":-89.0444,"dy":0.0017,"dx":0.0017,"nx":28,"ny":28,"refTime":"2024-08-31T09:00:00:Z","depth":0,"parameterNumber":2,"parameterNumberName":"U-component_of_WINDS"},"data":[0,0,0,0,0,0,0,0,0,0,0,0,0,0,0,0,0,0,0,0,0,0,0,0,0,0,0,0,0,0,0,0,0,0,0,0,0,0,0,0,0,0,0,0,0,0,0,0,0,0,0,0,0,0,0,0,0,0,-5.2314,-5.2315,0,-5.2442,-5.2444,-5.2445,-5.2421,-5.2418,-5.2416,-5.2414,-5.2536,-5.2541,-5.2546,0,0,0,0,0,0,0,0,0,0,0,0,0,-5.2037,-5.2042,-5.2313,-5.2315,-5.2317,-5.2442,-5.2444,-5.2446,-5.2421,-5.2418,-5.2415,-5.2413,-5.2534,-5.254,-5.2547,0,0,0,0,0,0,0,0,0,0,0,0,0,-5.216,-5.2044,-5.2313,-5.232,-5.2322,-5.2442,-5.2444,-5.2446,-5.2422,-5.2418,-5.2415,-5.2411,-5.2532,-5.254,-5.2548,-5.2666,0,0,-5.2572,-5.2576,0,0,0,0,0,0,0,0,-5.2154,-5.2171,-5.2317,-5.232,-5.2322,-5.2412,-5.2391,-5.252,-5.2422,-5.2383,-5.2414,-5.241,-5.2497,-5.2507,-5.2539,-5.2672,-5.2677,-5.2573,-5.2578,-5.2581,-5.2584,0,0,0,0,0,0,0,-5.2145,-5.2165,-5.2364,-5.2319,-5.2322,-5.2313,-5.2327,-5.2415,-5.2457,-5.2386,-5.2385,-5.2401,-5.2497,-5.2531,-5.2542,-5.2679,-5.2573,-5.258,-5.2585,-5.2588,-5.2915,-5.2919,0,0,0,0,0,0,-5.2136,-5.2158,-5.236,-5.2368,-5.2228,-5.2321,-5.2337,-5.2386,-5.2456,-5.2464,-5.2404,-5.24,-5.2519,-5.2532,-5.2546,-5.2688,-5.2581,-5.2589,-5.2594,-5.2912,-5.2916,-5.292,0,0,0,0,0,0,-5.213,-5.2154,-5.2355,-5.2263,-5.2288,-5.233,-5.2386,-5.2391,-5.2425,-5.247,-5.2476,-5.2431,-5.2517,-5.2534,-5.2637,-5.2692,-5.2593,-5.26,-5.2907,-5.2913,-5.2918,-5.2975,0,0,0,0,0,0,-5.2122,-5.2152,-5.2199,-5.2264,-5.2293,-5.2447,-5.2389,-5.2396,-5.244,-5.2435,-5.2497,-5.2504,-5.2516,-5.2625,-5.2645,-5.2702,-5.2606,-5.2902,-5.291,-5.2917,-5.2968,-5.2982,-5.2994,0,0,0,0,0,-5.2112,-5.2208,-5.2202,-5.2226,-5.2354,-5.245,-5.2466,-5.248,-5.2445,-5.2491,-5.252,-5.2502,-5.2684,-5.2636,-5.2658,-5.2718,-5.2899,-5.2908,-5.2916,-5.2963,-5.2979,-5.2994,0,0,0,0,0,0,-5.2144,-5.2216,-5.221,-5.2331,-5.2385,-5.2446,-5.2505,-5.2497,-5.256,-5.2552,-5.2564,-5.2579,-5.2683,-5.2711,-5.2656,-5.2836,-5.2786,-5.2799,-5.2814,-5.283,-5.2842,-5.2832,-5.2613,0,0,0,0,0,-5.2166,-5.2242,-5.23,-5.24,-5.2428,-5.2462,-5.2505,-5.2511,-5.2566,-5.2588,-5.2624,-5.2676,-5.2745,-5.2789,-5.2855,-5.2974,-5.2985,-5.3026,-5.3038,-5.3049,-5.3059,-5.3123,-5.3141,-5.2949,-5.2949,-5.2949,0,0,-5.221,-5.2259,-5.2305,-5.2408,-5.245,-5.2525,-5.2481,-5.2562,-5.2617,-5.2599,-5.2699,-5.2728,-5.2786,-5.2897,-5.2948,-5.2924,-5.3115,-5.306,-5.3067,-5.3072,-5.3133,-5.3151,-5.3167,-5.2955,-5.2954,-5.2953,0,0,-5.2329,-5.2375,-5.2463,-5.2508,-5.2575,-5.2598,-5.2619,-5.2682,-5.2702,-5.2803,-5.2791,-5.2856,-5.2974,-5.3016,-5.3053,-5.3191,-5.3175,-5.3212,-5.3276,-5.3338,-5.3353,-5.3367,-5.3414,-5.3431,-5.3223,-5.3223,-5.3223,0,-5.2374,-5.249,-5.2508,-5.2592,-5.2636,-5.2629,-5.2717,-5.2758,-5.2841,-5.2871,-5.2844,-5.2994,-5.3032,-5.3152,-5.3187,-5.3218,-5.324,-5.3203,-5.3351,-5.3364,-5.3377,-5.3422,-5.344,-5.3227,-5.3226,-5.3226,-5.3225,0,-5.2541,-5.2622,-5.2685,-5.277,-5.2822,-5.2907,-5.2936,-5.2986,-5.2989,-5.3014,-5.3116,-5.3163,-5.3238,-5.3268,-5.327,-5.3389,-5.3372,-5.3348,-5.3297,-5.3399,-5.3441,-5.3458,-5.3232,-5.3231,-5.3229,-5.3229,0,0,-5.2679,-5.2777,-5.2799,-5.2838,-5.2913,-5.2973,-5.3058,-5.3135,-5.3177,-5.3235,-5.3304,-5.3407,-5.3386,-5.3427,-5.3435,-5.349,-5.3594,-5.3459,-5.346,-5.348,-5.3725,-5.3741,-5.3761,-5.3586,-5.359,-5.3592,-5.372,0,-5.2803,-5.2955,-5.2976,-5.3109,-5.3183,-5.3178,-5.3251,-5.3304,-5.333,-5.3394,-5.3421,-5.3493,-5.3461,-5.3486,-5.354,-5.357,-5.3643,-5.3561,-5.3647,-5.365,-5.363,-5.3783,-5.3799,-5.3917,-5.3737,-5.3739,-5.3742,0,-5.2966,-5.3034,-5.3176,-5.3242,-5.3273,-5.3339,-5.3411,-5.3474,-5.3533,-5.3548,-5.3597,-5.3598,-5.3682,-5.3631,-5.3747,-5.3691,-5.3728,-5.3748,-5.3753,-5.3758,-5.3699,-5.379,-5.3955,-5.3972,-5.3768,-5.3766,-5.3764,0,-5.305,-5.3176,-5.3277,-5.3311,-5.3391,-5.3437,-5.3472,-5.3528,-5.3573,-5.3636,-5.3665,-5.3736,-5.3774,-5.3828,-5.3847,-5.3808,-5.3961,-5.3911,-5.3973,-5.3972,-5.4002,-5.3999,-5.4172,-5.4031,-5.4031,-5.403,-5.403,0,-5.3184,-5.327,-5.3316,-5.3378,-5.3474,-5.3497,-5.3591,-5.3623,-5.3674,-5.3739,-5.374,-5.3801,-5.3824,-5.3889,-5.3904,-5.3997,-5.4014,-5.4026,-5.4029,-5.4025,-5.4023,-5.4046,-5.4037,-5.4035,-5.4034,-5.4033,-5.4032,0,-5.3291,-5.3327,-5.3436,-5.3505,-5.3524,-5.3592,-5.3648,-5.3707,-5.3734,-5.3818,-5.3838,-5.3879,-5.3956,-5.3982,-5.4073,-5.4084,-5.419,-5.4187,-5.4171,-5.4171,-5.4229,-5.4222,-5.4421,-5.4447,-5.4292,-5.4293,-5.4295,0,-5.3373,-5.344,-5.3517,-5.3563,-5.3601,-5.3675,-5.3722,-5.3747,-5.3796,-5.387,-5.3919,-5.3996,-5.4058,-5.418,-5.4216,-5.4286,-5.4282,-5.4347,-5.4292,-5.4286,-5.428,-5.4274,-5.428,-5.4356,-5.4357,-5.4359,-5.436,0,-5.3513,-5.3528,-5.3598,-5.3675,-5.3733,-5.3794,-5.3853,-5.389,-5.3923,-5.3978,-5.4058,-5.4107,-5.4202,-5.4277,-5.435,-5.4382,-5.4376,-5.4378,-5.4395,-5.4389,-5.4376,-5.4382,-5.4196,-5.4372,-5.4371,-5.437,-5.4369,-5.4369,-5.3608,-5.3667,-5.3731,-5.3809,-5.3858,-5.3913,-5.3972,-5.4008,-5.4077,-5.4159,-5.4169,-5.4255,-5.4312,-5.4409,-5.4445,-5.4511,-5.4492,-5.4518,-5.4523,-5.4529,-5.4532,-5.437,-5.4524,-5.4524,-5.4523,-5.4523,-5.4523,0,-5.3745,-5.3787,-5.386,-5.3944,-5.4006,-5.4,-5.4065,-5.4116,-5.4192,-5.4248,-5.4311,-5.4403,-5.4477,-5.452,-5.4594,-5.4637,-5.4636,-5.4655,-5.465,-5.4657,-5.4546,-5.4522,-5.4655,-5.4655,-5.4655,-5.4655,-5.4655,-5.4655,-5.3823,-5.3923,-5.3946,-5.4069,-5.411,-5.4197,-5.4234,-5.4285,-5.433,-5.4433,-5.4496,-5.4526,-5.4576,-5.4654,-5.4721,-5.4731,-5.4757,-5.4777,-5.4786,-5.4679,-5.4665,-5.4652,-5.463,-5.4784,-5.4784,-5.4892,-5.4893,-5.4893]},{"header":{"parameterUnit":"m.s-1","parameterCategory":1,"la1":30.2991,"la2":30.254,"lo1":-89.0895,"lo2":-89.0444,"dy":0.0017,"dx":0.0017,"nx":28,"ny":28,"refTime":"2024-08-31T09:00:00:Z","depth":0,"parameterNumber":3,"parameterNumberName":"V-component_of_WINDS"},"data":[0,0,0,0,0,0,0,0,0,0,0,0,0,0,0,0,0,0,0,0,0,0,0,0,0,0,0,0,0,0,0,0,0,0,0,0,0,0,0,0,0,0,0,0,0,0,0,0,0,0,0,0,0,0,0,0,0,0,2.5713,2.5711,0,2.5501,2.5499,2.5496,2.5308,2.5306,2.5304,2.5302,2.5084,2.508,2.5076,0,0,0,0,0,0,0,0,0,0,0,0,0,2.5954,2.595,2.5714,2.5711,2.5708,2.5502,2.5499,2.5496,2.5309,2.5306,2.5303,2.5301,2.5085,2.508,2.5076,0,0,0,0,0,0,0,0,0,0,0,0,0,2.5807,2.5949,2.5714,2.559,2.5577,2.5502,2.5499,2.5495,2.5309,2.5306,2.5303,2.53,2.5086,2.5081,2.5075,2.5106,0,0,2.5058,2.5056,0,0,0,0,0,0,0,0,2.5815,2.5798,2.5611,2.5598,2.5583,2.5428,2.5503,2.5365,2.531,2.5411,2.5302,2.5298,2.5201,2.5186,2.5153,2.5096,2.5086,2.5058,2.5054,2.5052,2.505,0,0,0,0,0,0,0,2.5826,2.5806,2.5629,2.5608,2.5592,2.5544,2.5519,2.5476,2.5327,2.5402,2.5388,2.5365,2.5193,2.5159,2.5146,2.5083,2.5058,2.5053,2.5049,2.5047,2.5039,2.5042,0,0,0,0,0,0,2.5855,2.5816,2.5636,2.5623,2.5694,2.5542,2.5515,2.5481,2.5327,2.53,2.5368,2.5357,2.517,2.5153,2.5138,2.5163,2.5052,2.5046,2.5043,2.5036,2.5039,2.5043,0,0,0,0,0,0,2.5861,2.5841,2.5645,2.5715,2.5687,2.5542,2.5505,2.5479,2.5445,2.5301,2.5274,2.5361,2.5167,2.5146,2.5115,2.5153,2.5044,2.5039,2.5032,2.5037,2.5041,2.5214,0,0,0,0,0,0,2.5869,2.5844,2.5855,2.5717,2.5684,2.5627,2.5508,2.5477,2.5436,2.5419,2.5287,2.5263,2.5163,2.5125,2.511,2.5143,2.5034,2.5028,2.5034,2.504,2.5204,2.5224,2.5241,0,0,0,0,0,2.5878,2.5913,2.5857,2.5836,2.5695,2.5629,2.561,2.5495,2.5439,2.5449,2.5356,2.5267,2.5151,2.5123,2.5104,2.5137,2.5025,2.5032,2.5039,2.5196,2.522,2.5241,0,0,0,0,0,0,2.6059,2.5892,2.5829,2.582,2.574,2.5598,2.5606,2.5524,2.5459,2.5446,2.5305,2.5277,2.5262,2.5195,2.5167,2.5157,2.5076,2.508,2.5201,2.5223,2.5241,2.5258,2.503,0,0,0,0,0,2.6098,2.6059,2.5915,2.5921,2.5885,2.5753,2.572,2.5638,2.555,2.5515,2.542,2.5338,2.5282,2.5249,2.519,2.5194,2.5162,2.5206,2.5225,2.5241,2.5246,2.5241,2.5259,2.5066,2.5066,2.5066,0,0,2.6178,2.6082,2.6066,2.5955,2.5884,2.5846,2.5726,2.5691,2.5662,2.5509,2.5474,2.5402,2.53,2.5287,2.5276,2.5231,2.5292,2.525,2.5264,2.526,2.5251,2.5269,2.5286,2.5071,2.507,2.507,0,0,2.6304,2.6229,2.6224,2.6155,2.6048,2.596,2.596,2.5829,2.5775,2.5738,2.5622,2.5584,2.5493,2.5424,2.5378,2.5477,2.5392,2.5462,2.5558,2.5555,2.5571,2.5583,2.5618,2.5632,2.5467,2.5467,2.5468,0,2.6417,2.6357,2.6233,2.6205,2.6159,2.6019,2.6013,2.5952,2.5832,2.5803,2.5754,2.5635,2.5557,2.5525,2.5549,2.5516,2.551,2.5476,2.5578,2.559,2.56,2.5632,2.5645,2.5477,2.5476,2.5475,2.5474,0,2.65,2.646,2.6469,2.6357,2.6311,2.6295,2.6168,2.6137,2.6058,2.5975,2.5938,2.5839,2.5757,2.5743,2.5666,2.57,2.5675,2.5605,2.552,2.563,2.5657,2.5668,2.549,2.5486,2.5484,2.5481,0,0,2.6736,2.6554,2.656,2.6506,2.6378,2.6344,2.632,2.624,2.6216,2.6137,2.6113,2.6038,2.5971,2.5919,2.5833,2.5831,2.5915,2.5759,2.5755,2.5792,2.5944,2.5999,2.6015,2.5857,2.5859,2.586,2.5953,0,2.6842,2.6792,2.6679,2.6664,2.6625,2.649,2.6469,2.6388,2.6309,2.6263,2.6175,2.6124,2.604,2.6007,2.5999,2.5907,2.5943,2.5898,2.5833,2.5832,2.5863,2.6029,2.6086,2.6179,2.5963,2.5965,2.5966,0,2.6958,2.6888,2.687,2.6742,2.6721,2.6705,2.6621,2.6579,2.6483,2.6426,2.6367,2.6271,2.6238,2.616,2.6112,2.6083,2.605,2.6,2.6001,2.599,2.5906,2.6023,2.6205,2.622,2.5981,2.598,2.5979,0,2.7132,2.7033,2.7008,2.6967,2.6817,2.6808,2.6746,2.6646,2.6605,2.6532,2.6503,2.6428,2.6386,2.633,2.6216,2.6169,2.618,2.6093,2.6131,2.6134,2.614,2.6141,2.632,2.6119,2.6119,2.6118,2.6118,0,2.7262,2.7256,2.7084,2.707,2.7058,2.6927,2.692,2.6844,2.6756,2.6724,2.6602,2.6574,2.6426,2.638,2.6291,2.6264,2.6247,2.6199,2.6175,2.621,2.6216,2.6186,2.6177,2.6122,2.6121,2.612,2.612,0,2.7455,2.734,2.7304,2.7165,2.713,2.7128,2.7008,2.6988,2.6901,2.6861,2.6844,2.6708,2.6648,2.6529,2.6436,2.6375,2.6369,2.6327,2.6402,2.6387,2.6432,2.643,2.6598,2.6613,2.6404,2.6406,2.6408,0,2.7546,2.7538,2.7397,2.7367,2.7309,2.7261,2.7218,2.7088,2.7048,2.6937,2.6931,2.6861,2.6798,2.6708,2.6601,2.6529,2.6484,2.6548,2.6473,2.6508,2.6485,2.6487,2.6485,2.6566,2.6568,2.6571,2.6573,0,2.7719,2.7661,2.7604,2.7527,2.7479,2.7412,2.7338,2.732,2.7172,2.7133,2.707,2.7022,2.6926,2.6859,2.677,2.6704,2.6614,2.6597,2.6602,2.6638,2.6681,2.6658,2.6448,2.6594,2.6592,2.659,2.6589,2.6588,2.7862,2.7849,2.7748,2.7687,2.7618,2.7552,2.7526,2.7435,2.7381,2.7293,2.7219,2.7163,2.7064,2.6937,2.6876,2.6829,2.6786,2.6793,2.6795,2.6799,2.6813,2.6689,2.6813,2.6812,2.6811,2.681,2.681,0,2.8029,2.7957,2.7903,2.7803,2.7756,2.7675,2.7588,2.7554,2.7506,2.7422,2.7362,2.729,2.7223,2.711,2.7033,2.7017,2.6974,2.7002,2.7002,2.6988,2.6857,2.686,2.7038,2.7038,2.7038,2.7038,2.7038,2.7038,2.811,2.8083,2.8014,2.795,2.7876,2.782,2.7778,2.7715,2.7648,2.7572,2.7516,2.7442,2.7346,2.7261,2.7196,2.7164,2.7142,2.7183,2.7139,2.7018,2.6997,2.6977,2.6979,2.7179,2.7179,2.7273,2.7274,2.7275]}]]